Regional Weather Roundup
Issued by NWS Austin/San Antonio, TX

Home | Current Version | Previous Version | Text Only | Print | Product List | Glossary Off
Versions: 1 2 3 4 5 6 7 8 9 10 11 12 13 14 15 16 17 18 19 20 21 22 23 24 25 26 27 28 29 30 31 32 33 34 35 36 37 38 39 40 41 42 43 44 45 46 47 48 49 50

621
ASUS44 KEWX 180410
RWREWX
SOUTH TEXAS REGIONAL WEATHER ROUNDUP
NATIONAL WEATHER SERVICE AUSTIN/SAN ANTONIO TX
1000 PM CST SUN FEB 17 2019

NOTE: "FAIR" INDICATED FEW OR NO CLOUDS BELOW 12,000 FEET WITH NO
SIGNIFICANT WEATHER AND/OR OBSTRUCTIONS TO VISIBILITY.

* - THESE STATIONS ARE NOT NWS OR FAA STATIONS...AND ARE NOT SUBJECT
    TO NWS AND FAA QUALITY CONTROL.

TXZ171-172-183>190-180500-
TEXAS HILL COUNTRY AND EDWARDS PLATEAU

CITY           SKY/WX    TMP DP  RH WIND       PRES   REMARKS
JUNCTION       CLEAR     47  32  56 NE9       30.03R WCI  43
*LLANO         CLOUDY    48  34  57 NE7       30.08R WCI  45
BURNET         CLOUDY    48  32  53 NE9       30.05R WCI  44
*HORSESHOE BAY CLOUDY    49  32  52 N6        30.05R WCI  47
*KERRVILLE     PTCLDY    51  34  52 NE12      30.01R
*FREDERICKSBRG CLOUDY    48  31  53 NE8       30.03R WCI  44
*ROCKSPRINGS   CLEAR     48  32  53 E9        30.03R WCI  44
*BOERNE STAGE  CLOUDY    48  32  53 NE7       30.02R WCI  45
*CASTROVILLE   CLOUDY    55  33  44 NE9       30.02R
HONDO          PTCLDY    53  38  56 NE8       30.00R
*UVALDE        PTCLDY    52  35  52 E8        29.99R
DEL RIO        CLEAR     55  31  39 E8        29.95R
LAUGHLIN AFB   CLEAR     53  31  43 NE3       29.95R
CARRIZO SPRGS  CLEAR     59  36  41 E7        29.96R
*FAITH RANCH   CLEAR     61  32  33 E9        29.95R
$$

TXZ173-191>194-202-209-217>225-228-180500-
CENTRAL AND SOUTH CENTRAL TEXAS

CITY           SKY/WX    TMP DP  RH WIND       PRES   REMARKS
GEORGETOWN     PTCLDY    48  33  56 N8        30.06R WCI  44
AUSTIN/BERGSTM MOCLDY    50  35  56 NE15      30.02R WCI  45
AUSTIN/MABRY   PTCLDY    51  32  48 NE8G16    30.03R
*AUSTIN/EXEC   PTCLDY    46  36  66 NE12      30.03R WCI  41
*LAGO VISTA    PTCLDY    49  26  40 NE16G25   30.02R WCI  43
SAN MARCOS     CLOUDY    49  35  58 N15       30.02R WCI  43
NEW BRAUNFELS  CLOUDY    51  35  54 NE15G21   29.99R
RANDOLPH AFB   CLOUDY    52  35  53 NE9       30.00R
PT SAN ANTONIO CLOUDY    54  35  48 NE18      29.99R
SAN ANTONIO    CLOUDY    52  35  52 NE12      30.01R
STINSON FIELD  CLOUDY    54  33  45 NE6       29.99R
*LA GRANGE     CLOUDY    51  38  62 N9        29.97R
*GIDDINGS      CLOUDY    52  40  64 N9        30.00S
*GONZALES      CLOUDY    50  39  64 N8        29.99R WCI  47
$$

TXZ163>164-176>182-195>201-210>213-226-227-235-180500-
SOUTHEAST TEXAS

CITY           SKY/WX    TMP DP  RH WIND       PRES   REMARKS
COLLEGE STN    CLOUDY    49  36  61 N15       30.02R WCI  43
*BRYAN         CLOUDY    46  35  66 N9        30.04R WCI  41
*CALDWELL      CLOUDY    47  36  63 N8        30.03R WCI  44
*CROCKETT        N/A     45  36  70 N7        30.07S WCI  41
*BRENHAM       CLOUDY    49  39  68 N8        30.00S WCI  46
HUNTSVILLE     CLOUDY    45  36  70 VRB5      30.02R WCI  43
CONROE         CLEAR     49  40  71 N7        30.00S WCI  46
HOUSTON BUSH   PTCLDY    51  43  74 NE12      29.98S
HOUSTON HOBBY  FAIR      52  41  66 NE21G30   29.96R
*HOUSTON SW AP FAIR      51  42  70 NE14G24   29.97R
PEARLAND       FAIR      53  44  71 NE16G26   29.98R
HOUSTON HOOKS  FAIR      51  40  65 NE12      29.98S
ELLINGTON FLD  PTCLDY    54  43  66 N16       29.98S
SUGAR LAND     FAIR      54  41  61 NE21G28   29.95S
*HOUSTON EXEC  FAIR      50  45  81 NE10      29.98S WCI  46
*CLEVELAND MUN FAIR      47  43  84 N5        30.01S WCI  45
*WHARTON       CLOUDY    51  41  69 NE7       29.98R
*COLUMBUS      FAIR      50  38  62 NE6       29.99R WCI  48
*EAGLE LAKE    CLOUDY    48  43  82 NE7       29.98  WCI  45
$$

TXZ214>216-236>238-180500-
THE UPPER TEXAS COAST

CITY           SKY/WX    TMP DP  RH WIND       PRES   REMARKS
*ORANGE        FAIR      48  45  88 N10       30.01R WCI  44
PORT ARTHUR    FAIR      50  42  74 N18G26    29.98R WCI  44
GALVESTON      FAIR      53  44  71 N29G35    29.96R
ANGLETON       FAIR      53  45  74 N12       29.96R
*BAY CITY      CLOUDY    54  47  76 NE10      29.95R
PALACIOS       CLOUDY    54  46  74 N14       29.96R
$$

TXZ229>234-239>247-180500-
TEXAS COASTAL BEND AND RIO GRANDE PLAINS

CITY           SKY/WX    TMP DP  RH WIND       PRES   REMARKS
VICTORIA       CLOUDY    52  43  71 NE7       29.98R
*BEEVILLE      CLOUDY    56  39  52 NE8       29.97R
ROCKPORT       CLEAR     56  47  71 N15G22    29.95R
*PORT ARANSAS  CLOUDY    58  48  67 N20       29.96R
*PORT LAVACA   CLOUDY    56  46  69 NE15G24   29.97R
*INGLESIDE     CLEAR     58  47  66 NE17      29.95R
CORPUS CHRISTI PTCLDY    58  44  60 NE13      29.95R
CORPUS NAS     CLEAR     61  49  64 N24       29.94R
*ROBSTOWN      NOT AVBL
ALICE          CLEAR     57  41  55 NE13      29.96R
KINGSVILLE NAS CLEAR     58  44  60 N9        29.97R
COTULLA        CLEAR     56  40  55 E10       29.99R
LAREDO         CLEAR     63  38  39 E13       29.95R
$$

TXZ248>255-180500-
DEEP SOUTH TEXAS

CITY           SKY/WX    TMP DP  RH WIND       PRES   REMARKS
BROWNSVILLE    CLOUDY    64  60  87 N14       29.89R
PORT ISABEL    CLOUDY    63  57  81 N16G23    29.89R
HARLINGEN      CLOUDY    63  55  75 NE20      29.91R
*HEBBRONVILLE  CLEAR     56  41  57 CALM      29.97R
MCALLEN        CLEAR     65  55  70 NE10      29.93R
*WESLACO       CLOUDY    62  52  71 NE9       29.92
FALFURRIAS     CLEAR     58  44  60 N8        29.95R
EDINBURG       FAIR      62  55  77 NE6       29.94R
*ZAPATA        FAIR      64  36  34 NE9       29.95R
$$

TXZ213>215-236>238-242>244-246-247-251-254-255-180500-
CMAN STATIONS

STATION/POSITION TIME  TEMP    WIND        PRES    WAVE
                       AIR SEA DIR/SP/G            HT/PER
                 (UTC) (F)     (DEG/KT/KT) (MB)    (FT/S)
SABINE PASS      0342   52 64   10/ 20/ 24 1016.5
SEA RIM ST PARK  0400   51      10/ 16/ 21 1014.6
NORTH JETTY/GLS  0342   52 59   30/ 26/ 30 1013.3
EAGLE POINT      0342   54 62   40/ 19/ 25 1014.7
MORGANS POINT    0342   52 60   30/ 13/ 20 1014.6
PORT O`CONNOR    0342   57 62   20/ 19/ 22 1013.7
PORT ARANSAS     0400   58 61   10/ 21/ 23 1013.6
MALAQUITE BEACH  0342   60 62  360/ 20/ 24 1013.1
BAFFIN BAY       0342   61 66   20/ 19/ 23 1013.7
PORT ISABEL      0342   62 64  360/ 14/ 20 1011.7
$$




USA.gov is the U.S. government's official web portal to all federal, state and local government web resources and services.